Regional Weather Roundup
Issued by NWS

Home | Current Version | Previous Version | Graphics & Text | Print | Product List | Glossary On
Versions: 1 2 3 4 5 6 7 8 9 10 11 12 13 14 15 16 17 18 19 20 21 22 23 24 25 26 27 28 29 30 31 32 33 34 35 36 37 38 39 40 41 42 43 44 45 46 47 48 49 50
000
ASUS43 KOAX 221902
RWRNE

WEATHER ROUNDUP FOR NEBRASKA
NATIONAL WEATHER SERVICE OMAHA NE
200 PM CDT MON MAY 22 2017

NOTES: SATELLITE DATA IS BEING USED TO AUGMENT CLOUD COVER ABOVE
       12000 FEET.
       "FAIR" INDICATES FEW OR NO CLOUDS BELOW 12,000 FEET WITH NO
       SIGNIFICANT WEATHER AND/OR OBSTRUCTIONS TO VISIBILITY.

  * THESE STATIONS DO NOT REPORT WEATHER SUCH AS RAIN...SNOW OR FOG.

NEZ001>004-019>022-054>056-222000-
NEBRASKA PANHANDLE

CITY           SKY/WX    TMP DP  RH WIND       PRES   REMARKS
SCOTTSBLUFF    LGT RAIN  56  42  59 N20G31    30.08R
ALLIANCE       TSTM      51  40  65 W31G41    30.04R
CHADRON        CLOUDY    58  40  51 SW5       30.01F
GORDON         FAIR      60  40  48 NW13      30.00F
KIMBALL        CLOUDY    60  36  41 N14G22    30.08F
SIDNEY         MOSUNNY   60  41  49 N22G30    30.07F
$$

NEZ057>060-069>072-079>082-222000-
SOUTHWEST NEBRASKA

CITY           SKY/WX    TMP DP  RH WIND       PRES   REMARKS
NORTH PLATTE   CLOUDY    68  51  54 NW12      29.97F
IMPERIAL       PTSUNNY   65  40  39 N13G24    30.01F
LEXINGTON      PTSUNNY   71  44  39 NW23G29   29.95F
MCCOOK         MOSUNNY   75  38  26 NW16G23   29.96F
OGALLALA       PTSUNNY   66  41  39 N17G24    30.01F
$$

NEZ005>010-023>029-035>040-094-222000-
NORTH CENTRAL NEBRASKA

CITY           SKY/WX    TMP DP  RH WIND       PRES   REMARKS
VALENTINE      CLOUDY    66  42  41 NW12      29.95F
AINSWORTH      PTSUNNY   59  47  63 NW12      29.97F
BROKEN BOW     MOSUNNY   69  45  41 N21G29    29.95S
O`NEILL        LGT RAIN  57  44  63 W10       29.95F
ORD            SUNNY     65  43  44 NW21G32   29.94R
$$

NEZ041-046>049-061>064-073>077-083>087-222000-
SOUTH CENTRAL NEBRASKA

CITY           SKY/WX    TMP DP  RH WIND       PRES   REMARKS
GRAND ISLAND   SUNNY     72  45  37 W14       29.93F
AURORA         CLOUDY    71  42  35 W7        29.92F
HASTINGS       CLOUDY    70  43  37 VRB5      29.95F
HEBRON         CLOUDY    64  53  69 SW12      29.98F
HOLDREGE       PTSUNNY   69  40  33 W6G20     29.95F
KEARNEY *      SUNNY     72  43  35 W10       29.95F
$$

NEZ011>018-030>034-042>045-222000-
NORTHEAST NEBRASKA

CITY           SKY/WX    TMP DP  RH WIND       PRES   REMARKS
NORFOLK        PTSUNNY   69  43  38 NW18G24   29.89S
ALBION         MOSUNNY   70  44  38 NW15G28   29.92S
BLAIR          CLOUDY    71  47  43 W8        29.90F
FREMONT        SUNNY     72  47  40 W9        29.90F
TEKAMAH        SUNNY     72  46  39 W13       29.88F
WAYNE          PTSUNNY   71  47  42 NW13G20   29.88F
$$

NEZ050>053-065>068-078-088>093-222000-
SOUTHEAST NEBRASKA

CITY           SKY/WX    TMP DP  RH WIND       PRES   REMARKS
LINCOLN        MOSUNNY   71  53  52 SW18      29.92F
OMAHA EPPLEY   CLOUDY    74  45  35 SW12G22   29.90F
BEATRICE       MOSUNNY   67  56  67 SW14      29.97F
FALLS CITY     RAIN      59  57  93 SW22G29   29.96F
NEBRASKA CITY  CLOUDY    67  51  55 SW20      29.95F
$$

NEZ044-045-051>053-067-222000-
OMAHA AREA

CITY           SKY/WX    TMP DP  RH WIND       PRES   REMARKS
OMAHA EPPLEY   CLOUDY    74  45  35 SW12G22   29.90F
BLAIR          CLOUDY    71  47  43 W8        29.90F
FREMONT        SUNNY     72  47  40 W9        29.90F
MILLARD        PTSUNNY   73  53  50 SW10G16   29.90F
OFFUTT AFB     CLOUDY    70  53  53 S15G21    29.90F
WAHOO          FAIR      73  42  33 W7        29.90F
$$




USA.gov is the U.S. government's official web portal to all federal, state and local government web resources and services.